Location: Peebles
(55.6412°N, 3.1714°W)
Time: 20:02:11
(UTC+01:00)

Envisat - Pass Details

Date: 01 March 2024
Orbit: 762 x 764 km, 98.3° (Epoch: 21 April)

Event Time Altitude Azimuth Distance (km) Brightness Sun altitude
Rises 01:59:27 0° 28° (NNE) 3,245 7.2 -38.3°
Reaches altitude 10° 02:03:24 10° 59° (ENE) 2,311 6.1 -38.0°
Maximum altitude 02:05:22 12° 81° (E) 2,163 5.7 -37.9°
Enters shadow 02:05:44 12° 86° (E) 2,168 5.6 -37.8°
